Regional Weather Roundup
Issued by NWS Sioux Falls, SD

Home | Current Version | Previous Version | Graphics & Text | Print | Product List | Glossary Off
Versions: 1 2 3 4 5 6 7 8 9 10 11 12 13 14 15 16 17 18 19 20 21 22 23 24 25 26 27 28 29 30 31 32 33 34 35 36 37 38 39 40 41 42 43 44 45 46 47 48 49 50

154
ASUS43 KFSD 230410
RWRFSD

WEATHER ROUNDUP FOR SE SOUTH DAKOTA/SW MINNESOTA/NW IOWA
NATIONAL WEATHER SERVICE SIOUX FALLS SD
1100 PM CDT SAT APR 22 2017

NOTE: "FAIR" INDICATES FEW OR NO CLOUDS BELOW 12,000 FEET WITH NO
SIGNIFICANT WEATHER AND OR OBSTRUCTIONS TO VISIBILITY.


SDZ038>040-050-052>070-230500-
SOUTHEAST SOUTH DAKOTA

CITY           SKY/WX    TMP DP  RH WIND       PRES   REMARKS
BROOKINGS      CLEAR     50  37  61 S7        30.14R
CHAMBERLAIN    CLEAR     49  38  66 SE10      30.10F
HURON          CLEAR     54  37  52 S9        30.11S
MADISON        FAIR      52  34  50 SW7       30.14S
MITCHELL       CLEAR     56  37  49 S9        30.14S
SIOUX FALLS    CLEAR     54  38  54 SW5       30.15S
WINNER         FAIR      55  32  41 S15       30.11F
YANKTON        CLEAR     54  36  50 SW5       30.17R
$$

MNZ071-072-080-081-089-090-097-098-230500-
SOUTHWEST MINNESOTA

CITY           SKY/WX    TMP DP  RH WIND       PRES   REMARKS
FAIRMONT       CLEAR     53  39  59 SW7       30.14F
JACKSON        CLEAR     52  36  54 SW7       30.15S
LUVERNE        CLEAR     46  36  66 SW9       30.16S
MARSHALL       CLEAR     52  38  58 SW10      30.12S
MONTEVIDEO     CLEAR     55  36  47 W7        30.10S
PIPESTONE      CLEAR     48  36  61 SW6       30.14F
REDWOOD FALLS  CLEAR     56  35  45 SW7       30.11S
TRACY          CLEAR     53  39  60 SW8       30.13F
WINDOM         CLEAR     50  36  57 CALM      30.14S
WORTHINGTON    CLEAR     52  36  54 SW9       30.16S
$$

IAZ001>003-012>014-020>022-031-032-NEZ013-014-SDZ071-230500-
NORTHWEST IOWA

CITY           SKY/WX    TMP DP  RH WIND       PRES   REMARKS
CHEROKEE       CLEAR     44  40  83 CALM      30.17S
DENISON        CLEAR     48  36  61 CALM      30.20F
ESTHERVILLE    CLEAR     50  37  61 SW7       30.15S
LE MARS        CLEAR     45  39  81 CALM      30.19R
ORANGE CITY    CLEAR     48  37  66 W6        30.18R
SHELDON        PTCLDY    52  36  54 SW7       30.15S
SIOUX CITY     CLEAR     47  37  68 W5        30.18S
SPENCER        CLEAR     46  36  68 SW7       30.16S
STORM LAKE     CLEAR     57  28  33 W7        30.17F
$$

ABBREVIATIONS USED IN REMARKS
   TC - TEMPERATURE IN CELSIUS
  WCI - WIND CHILL INDEX
   HX - HEAT INDEX
  VSB - VISIBILITY





USA.gov is the U.S. government's official web portal to all federal, state and local government web resources and services.